#datetime,building,power
2023-10-13T00:00:00,axn,35.26
2023-10-13T00:01:00,axn,35.09
2023-10-13T00:02:00,axn,35.07
2023-10-13T00:03:00,axn,29.30
2023-10-13T00:04:00,axn,29.03
2023-10-13T00:05:00,axn,28.62
2023-10-13T00:06:00,axn,28.61
2023-10-13T00:07:00,axn,28.95
2023-10-13T00:08:00,axn,28.44
2023-10-13T00:09:00,axn,28.46
2023-10-13T00:10:00,axn,28.45
2023-10-13T00:11:00,axn,31.38
2023-10-13T00:12:00,axn,31.71
2023-10-13T00:13:00,axn,31.34
2023-10-13T00:14:00,axn,31.03
2023-10-13T00:15:00,axn,28.34
2023-10-13T00:16:00,axn,28.18
2023-10-13T00:17:00,axn,28.30
2023-10-13T00:18:00,axn,28.46
2023-10-13T00:19:00,axn,28.29
2023-10-13T00:20:00,axn,28.25
2023-10-13T00:21:00,axn,28.78
2023-10-13T00:22:00,axn,28.32
2023-10-13T00:23:00,axn,28.40
2023-10-13T00:24:00,axn,28.34
2023-10-13T00:25:00,axn,28.05
2023-10-13T00:26:00,axn,28.25
2023-10-13T00:27:00,axn,28.03
2023-10-13T00:28:00,axn,28.13
2023-10-13T00:29:00,axn,28.21
2023-10-13T00:30:00,axn,28.28
2023-10-13T00:31:00,axn,28.22
2023-10-13T00:32:00,axn,28.27
2023-10-13T00:33:00,axn,28.03
2023-10-13T00:34:00,axn,27.95
2023-10-13T00:35:00,axn,27.67
2023-10-13T00:36:00,axn,27.99
2023-10-13T00:37:00,axn,27.63
2023-10-13T00:38:00,axn,27.56
2023-10-13T00:39:00,axn,27.44
2023-10-13T00:40:00,axn,27.29
2023-10-13T00:41:00,axn,27.38
2023-10-13T00:42:00,axn,27.55
2023-10-13T00:43:00,axn,27.50
2023-10-13T00:44:00,axn,28.10
2023-10-13T00:45:00,axn,27.50
2023-10-13T00:46:00,axn,27.65
2023-10-13T00:47:00,axn,27.72
2023-10-13T00:48:00,axn,27.68
2023-10-13T00:49:00,axn,27.48
2023-10-13T00:50:00,axn,27.98
2023-10-13T00:51:00,axn,28.22
2023-10-13T00:52:00,axn,28.19
2023-10-13T00:53:00,axn,28.86
2023-10-13T00:54:00,axn,28.11
2023-10-13T00:55:00,axn,28.37
2023-10-13T00:56:00,axn,28.29
2023-10-13T00:57:00,axn,30.68
2023-10-13T00:58:00,axn,27.75
2023-10-13T00:59:00,axn,27.86
2023-10-13T01:00:00,axn,28.18
2023-10-13T01:01:00,axn,27.70
2023-10-13T01:02:00,axn,27.76
2023-10-13T01:03:00,axn,27.98
2023-10-13T01:04:00,axn,27.60
2023-10-13T01:05:00,axn,27.46
2023-10-13T01:06:00,axn,27.54
2023-10-13T01:07:00,axn,27.64
2023-10-13T01:08:00,axn,27.88
2023-10-13T01:09:00,axn,27.78
2023-10-13T01:10:00,axn,27.60
2023-10-13T01:11:00,axn,27.66
2023-10-13T01:12:00,axn,27.62
2023-10-13T01:13:00,axn,27.47
2023-10-13T01:14:00,axn,27.81
2023-10-13T01:15:00,axn,28.31
2023-10-13T01:16:00,axn,27.85
2023-10-13T01:17:00,axn,27.72
2023-10-13T01:18:00,axn,27.58
2023-10-13T01:19:00,axn,27.46
2023-10-13T01:20:00,axn,27.58
2023-10-13T01:21:00,axn,27.63
2023-10-13T01:22:00,axn,27.89
2023-10-13T01:23:00,axn,27.76
2023-10-13T01:24:00,axn,28.05
2023-10-13T01:25:00,axn,27.99
2023-10-13T01:26:00,axn,28.15
2023-10-13T01:27:00,axn,27.84
2023-10-13T01:28:00,axn,27.77
2023-10-13T01:29:00,axn,27.72
2023-10-13T01:30:00,axn,27.77
2023-10-13T01:31:00,axn,27.87
2023-10-13T01:32:00,axn,27.77
2023-10-13T01:33:00,axn,28.50
2023-10-13T01:34:00,axn,27.82
2023-10-13T01:35:00,axn,27.77
2023-10-13T01:36:00,axn,27.73
2023-10-13T01:37:00,axn,28.21
2023-10-13T01:38:00,axn,27.44
2023-10-13T01:39:00,axn,27.31
2023-10-13T01:40:00,axn,27.35
2023-10-13T01:41:00,axn,27.34
2023-10-13T01:42:00,axn,27.16
2023-10-13T01:43:00,axn,33.72
2023-10-13T01:44:00,axn,33.98
2023-10-13T01:45:00,axn,33.39
2023-10-13T01:46:00,axn,27.42
2023-10-13T01:47:00,axn,27.66
2023-10-13T01:48:00,axn,27.84
2023-10-13T01:49:00,axn,27.83
2023-10-13T01:50:00,axn,27.51
2023-10-13T01:51:00,axn,27.57
2023-10-13T01:52:00,axn,27.57
2023-10-13T01:53:00,axn,27.50
2023-10-13T01:54:00,axn,27.48
2023-10-13T01:55:00,axn,27.56
2023-10-13T01:56:00,axn,27.55
2023-10-13T01:57:00,axn,27.21
2023-10-13T01:58:00,axn,27.35
2023-10-13T01:59:00,axn,27.49
2023-10-13T02:00:00,axn,27.67
2023-10-13T02:01:00,axn,27.63
2023-10-13T02:02:00,axn,28.06
2023-10-13T02:03:00,axn,27.50
2023-10-13T02:04:00,axn,27.53
2023-10-13T02:05:00,axn,27.53
2023-10-13T02:06:00,axn,27.45
2023-10-13T02:07:00,axn,27.26
2023-10-13T02:08:00,axn,27.25
2023-10-13T02:09:00,axn,27.28
2023-10-13T02:10:00,axn,27.13
2023-10-13T02:11:00,axn,30.15
2023-10-13T02:12:00,axn,30.12
2023-10-13T02:13:00,axn,30.04
2023-10-13T02:14:00,axn,27.21
2023-10-13T02:15:00,axn,27.27
2023-10-13T02:16:00,axn,27.29
2023-10-13T02:17:00,axn,27.46
2023-10-13T02:18:00,axn,27.24
2023-10-13T02:19:00,axn,27.25
2023-10-13T02:20:00,axn,27.21
2023-10-13T02:21:00,axn,27.13
2023-10-13T02:22:00,axn,27.74
2023-10-13T02:23:00,axn,27.14
2023-10-13T02:24:00,axn,27.36
2023-10-13T02:25:00,axn,27.28
2023-10-13T02:26:00,axn,27.48
2023-10-13T02:27:00,axn,27.29
2023-10-13T02:28:00,axn,27.52
2023-10-13T02:29:00,axn,27.22
2023-10-13T02:30:00,axn,27.20
2023-10-13T02:31:00,axn,27.44
2023-10-13T02:32:00,axn,27.21
2023-10-13T02:33:00,axn,27.21
2023-10-13T02:34:00,axn,27.41
2023-10-13T02:35:00,axn,27.33
2023-10-13T02:36:00,axn,27.27
2023-10-13T02:37:00,axn,27.31
2023-10-13T02:38:00,axn,27.40
2023-10-13T02:39:00,axn,27.25
2023-10-13T02:40:00,axn,27.34
2023-10-13T02:41:00,axn,27.34
2023-10-13T02:42:00,axn,27.36
2023-10-13T02:43:00,axn,27.37
2023-10-13T02:44:00,axn,27.32
2023-10-13T02:45:00,axn,27.44
2023-10-13T02:46:00,axn,27.97
2023-10-13T02:47:00,axn,27.88
2023-10-13T02:48:00,axn,28.11
2023-10-13T02:49:00,axn,27.85
2023-10-13T02:50:00,axn,28.17
2023-10-13T02:51:00,axn,27.56
2023-10-13T02:52:00,axn,27.65
2023-10-13T02:53:00,axn,27.49
2023-10-13T02:54:00,axn,27.73
2023-10-13T02:55:00,axn,27.73
2023-10-13T02:56:00,axn,27.75
2023-10-13T02:57:00,axn,27.68
2023-10-13T02:58:00,axn,27.87
2023-10-13T02:59:00,axn,38.44
2023-10-13T03:00:00,axn,38.38
2023-10-13T03:01:00,axn,38.37
2023-10-13T03:02:00,axn,38.07
2023-10-13T03:03:00,axn,37.55
2023-10-13T03:04:00,axn,27.27
2023-10-13T03:05:00,axn,27.22
2023-10-13T03:06:00,axn,27.02
2023-10-13T03:07:00,axn,27.34
2023-10-13T03:08:00,axn,27.14
2023-10-13T03:09:00,axn,27.22
2023-10-13T03:10:00,axn,27.56
2023-10-13T03:11:00,axn,27.09
2023-10-13T03:12:00,axn,27.08
2023-10-13T03:13:00,axn,27.03
2023-10-13T03:14:00,axn,27.07
2023-10-13T03:15:00,axn,27.18
2023-10-13T03:16:00,axn,27.52
2023-10-13T03:17:00,axn,27.31
2023-10-13T03:18:00,axn,27.22
2023-10-13T03:19:00,axn,27.21
2023-10-13T03:20:00,axn,27.13
2023-10-13T03:21:00,axn,27.74
2023-10-13T03:22:00,axn,27.23
2023-10-13T03:23:00,axn,27.06
2023-10-13T03:24:00,axn,27.67
2023-10-13T03:25:00,axn,27.22
2023-10-13T03:26:00,axn,27.51
2023-10-13T03:27:00,axn,27.36
2023-10-13T03:28:00,axn,27.15
2023-10-13T03:29:00,axn,27.26
2023-10-13T03:30:00,axn,41.68
2023-10-13T03:31:00,axn,41.24
2023-10-13T03:32:00,axn,41.47
2023-10-13T03:33:00,axn,41.72
2023-10-13T03:34:00,axn,41.33
2023-10-13T03:35:00,axn,27.85
2023-10-13T03:36:00,axn,30.66
2023-10-13T03:37:00,axn,30.67
2023-10-13T03:38:00,axn,27.74
2023-10-13T03:39:00,axn,27.27
2023-10-13T03:40:00,axn,27.58
2023-10-13T03:41:00,axn,27.71
2023-10-13T03:42:00,axn,27.67
2023-10-13T03:43:00,axn,27.15
2023-10-13T03:44:00,axn,27.23
2023-10-13T03:45:00,axn,27.51
2023-10-13T03:46:00,axn,27.44
2023-10-13T03:47:00,axn,27.06
2023-10-13T03:48:00,axn,27.13
2023-10-13T03:49:00,axn,27.01
2023-10-13T03:50:00,axn,27.11
2023-10-13T03:51:00,axn,27.07
2023-10-13T03:52:00,axn,27.03
2023-10-13T03:53:00,axn,27.30
2023-10-13T03:54:00,axn,27.34
2023-10-13T03:55:00,axn,27.12
2023-10-13T03:56:00,axn,26.97
2023-10-13T03:57:00,axn,26.95
2023-10-13T03:58:00,axn,26.86
2023-10-13T03:59:00,axn,26.86
2023-10-13T04:00:00,axn,27.21
2023-10-13T04:01:00,axn,27.26
2023-10-13T04:02:00,axn,26.88
2023-10-13T04:03:00,axn,26.68
2023-10-13T04:04:00,axn,27.02
2023-10-13T04:05:00,axn,26.79
2023-10-13T04:06:00,axn,27.05
2023-10-13T04:07:00,axn,27.07
2023-10-13T04:08:00,axn,27.08
2023-10-13T04:09:00,axn,27.32
2023-10-13T04:10:00,axn,27.32
2023-10-13T04:11:00,axn,27.13
2023-10-13T04:12:00,axn,26.79
2023-10-13T04:13:00,axn,26.81
2023-10-13T04:14:00,axn,26.59
2023-10-13T04:15:00,axn,26.47
2023-10-13T04:16:00,axn,26.47
2023-10-13T04:17:00,axn,26.57
2023-10-13T04:18:00,axn,26.68
2023-10-13T04:19:00,axn,26.54
2023-10-13T04:20:00,axn,26.66
2023-10-13T04:21:00,axn,26.62
2023-10-13T04:22:00,axn,26.56
2023-10-13T04:23:00,axn,26.26
2023-10-13T04:24:00,axn,26.25
2023-10-13T04:25:00,axn,26.23
2023-10-13T04:26:00,axn,26.37
2023-10-13T04:27:00,axn,26.27
2023-10-13T04:28:00,axn,26.29
2023-10-13T04:29:00,axn,26.27
2023-10-13T04:30:00,axn,26.00
2023-10-13T04:31:00,axn,26.42
2023-10-13T04:32:00,axn,26.17
2023-10-13T04:33:00,axn,26.10
2023-10-13T04:34:00,axn,26.24
2023-10-13T04:35:00,axn,26.13
2023-10-13T04:36:00,axn,26.15
2023-10-13T04:37:00,axn,26.19
2023-10-13T04:38:00,axn,26.70
2023-10-13T04:39:00,axn,26.46
2023-10-13T04:40:00,axn,26.43
2023-10-13T04:41:00,axn,26.73
2023-10-13T04:42:00,axn,26.58
2023-10-13T04:43:00,axn,26.58
2023-10-13T04:44:00,axn,26.58
2023-10-13T04:45:00,axn,26.48
2023-10-13T04:46:00,axn,26.78
2023-10-13T04:47:00,axn,27.05
2023-10-13T04:48:00,axn,31.12
2023-10-13T04:49:00,axn,31.16
2023-10-13T04:50:00,axn,31.11
2023-10-13T04:51:00,axn,30.95
2023-10-13T04:52:00,axn,26.55
2023-10-13T04:53:00,axn,26.45
2023-10-13T04:54:00,axn,26.60
2023-10-13T04:55:00,axn,26.70
2023-10-13T04:56:00,axn,26.54
2023-10-13T04:57:00,axn,26.97
2023-10-13T04:58:00,axn,26.86
2023-10-13T04:59:00,axn,26.64
2023-10-13T05:00:00,axn,26.51
2023-10-13T05:01:00,axn,24.88
2023-10-13T05:02:00,axn,25.12
2023-10-13T05:03:00,axn,25.02
2023-10-13T05:04:00,axn,25.21
2023-10-13T05:05:00,axn,25.78
2023-10-13T05:06:00,axn,25.05
2023-10-13T05:07:00,axn,25.26
2023-10-13T05:08:00,axn,25.17
2023-10-13T05:09:00,axn,24.96
2023-10-13T05:10:00,axn,25.69
2023-10-13T05:11:00,axn,25.09
2023-10-13T05:12:00,axn,24.72
2023-10-13T05:13:00,axn,24.85
2023-10-13T05:14:00,axn,24.92
2023-10-13T05:15:00,axn,24.87
2023-10-13T05:16:00,axn,24.79
2023-10-13T05:17:00,axn,27.37
2023-10-13T05:18:00,axn,27.48
2023-10-13T05:19:00,axn,27.58
2023-10-13T05:20:00,axn,24.84
2023-10-13T05:21:00,axn,25.19
2023-10-13T05:22:00,axn,24.58
2023-10-13T05:23:00,axn,24.54
2023-10-13T05:24:00,axn,24.59
2023-10-13T05:25:00,axn,24.58
2023-10-13T05:26:00,axn,24.41
2023-10-13T05:27:00,axn,24.34
2023-10-13T05:28:00,axn,24.38
2023-10-13T05:29:00,axn,24.55
2023-10-13T05:30:00,axn,24.14
2023-10-13T05:31:00,axn,25.59
2023-10-13T05:32:00,axn,25.77
2023-10-13T05:33:00,axn,25.78
2023-10-13T05:34:00,axn,25.53
2023-10-13T05:35:00,axn,25.37
2023-10-13T05:36:00,axn,25.41
2023-10-13T05:37:00,axn,24.87
2023-10-13T05:38:00,axn,24.67
2023-10-13T05:39:00,axn,24.88
2023-10-13T05:40:00,axn,26.44
2023-10-13T05:41:00,axn,25.07
2023-10-13T05:42:00,axn,25.03
2023-10-13T05:43:00,axn,25.09
2023-10-13T05:44:00,axn,24.84
2023-10-13T05:45:00,axn,24.84
2023-10-13T05:46:00,axn,24.66
2023-10-13T05:47:00,axn,24.91
2023-10-13T05:48:00,axn,25.19
2023-10-13T05:49:00,axn,24.63
2023-10-13T05:50:00,axn,24.48
2023-10-13T05:51:00,axn,24.72
2023-10-13T05:52:00,axn,24.69
2023-10-13T05:53:00,axn,24.68
2023-10-13T05:54:00,axn,24.71
2023-10-13T05:55:00,axn,24.57
2023-10-13T05:56:00,axn,24.55
2023-10-13T05:57:00,axn,24.78
2023-10-13T05:58:00,axn,24.80
2023-10-13T05:59:00,axn,24.70
2023-10-13T06:00:00,axn,24.64
2023-10-13T06:01:00,axn,41.62
2023-10-13T06:02:00,axn,24.37
2023-10-13T06:03:00,axn,24.40
2023-10-13T06:04:00,axn,24.67
2023-10-13T06:05:00,axn,25.11
2023-10-13T06:06:00,axn,25.03
2023-10-13T06:07:00,axn,25.05
2023-10-13T06:08:00,axn,25.07
2023-10-13T06:09:00,axn,24.99
2023-10-13T06:10:00,axn,24.90
2023-10-13T06:11:00,axn,24.78
2023-10-13T06:12:00,axn,24.96
2023-10-13T06:13:00,axn,24.91
2023-10-13T06:14:00,axn,25.39
2023-10-13T06:15:00,axn,25.01
2023-10-13T06:16:00,axn,24.91
2023-10-13T06:17:00,axn,24.88
2023-10-13T06:18:00,axn,24.94
2023-10-13T06:19:00,axn,25.12
2023-10-13T06:20:00,axn,25.21
2023-10-13T06:21:00,axn,24.59
2023-10-13T06:22:00,axn,24.48
2023-10-13T06:23:00,axn,24.63
2023-10-13T06:24:00,axn,24.42
2023-10-13T06:25:00,axn,24.78
2023-10-13T06:26:00,axn,24.31
2023-10-13T06:27:00,axn,24.36
2023-10-13T06:28:00,axn,24.47
2023-10-13T06:29:00,axn,26.20
2023-10-13T06:30:00,axn,26.63
2023-10-13T06:31:00,axn,24.30
2023-10-13T06:32:00,axn,27.05
2023-10-13T06:33:00,axn,24.57
2023-10-13T06:34:00,axn,24.26
2023-10-13T06:35:00,axn,24.15
2023-10-13T06:36:00,axn,41.99
2023-10-13T06:37:00,axn,24.30
2023-10-13T06:38:00,axn,24.36
2023-10-13T06:39:00,axn,24.31
2023-10-13T06:40:00,axn,24.47
2023-10-13T06:41:00,axn,24.10
2023-10-13T06:42:00,axn,23.80
2023-10-13T06:43:00,axn,23.91
2023-10-13T06:44:00,axn,23.88
2023-10-13T06:45:00,axn,24.07
2023-10-13T06:46:00,axn,23.94
2023-10-13T06:47:00,axn,24.27
2023-10-13T06:48:00,axn,24.25
2023-10-13T06:49:00,axn,24.14
2023-10-13T06:50:00,axn,24.29
2023-10-13T06:51:00,axn,23.97
2023-10-13T06:52:00,axn,23.85
2023-10-13T06:53:00,axn,23.77
2023-10-13T06:54:00,axn,24.05
2023-10-13T06:55:00,axn,23.97
2023-10-13T06:56:00,axn,23.99
2023-10-13T06:57:00,axn,23.97
2023-10-13T06:58:00,axn,24.08
2023-10-13T06:59:00,axn,23.89
2023-10-13T07:00:00,axn,23.88
2023-10-13T07:01:00,axn,28.01
2023-10-13T07:02:00,axn,32.59
2023-10-13T07:03:00,axn,33.68
2023-10-13T07:04:00,axn,32.85
2023-10-13T07:05:00,axn,31.50
2023-10-13T07:06:00,axn,32.11
2023-10-13T07:07:00,axn,32.09
2023-10-13T07:08:00,axn,31.40
2023-10-13T07:09:00,axn,30.97
2023-10-13T07:10:00,axn,30.94
2023-10-13T07:11:00,axn,30.96
2023-10-13T07:12:00,axn,32.65
2023-10-13T07:13:00,axn,32.43
2023-10-13T07:14:00,axn,33.17
2023-10-13T07:15:00,axn,32.34
2023-10-13T07:16:00,axn,32.65
2023-10-13T07:17:00,axn,31.01
2023-10-13T07:18:00,axn,32.29
2023-10-13T07:19:00,axn,32.72
2023-10-13T07:20:00,axn,33.25
2023-10-13T07:21:00,axn,32.79
2023-10-13T07:22:00,axn,31.02
2023-10-13T07:23:00,axn,31.17
2023-10-13T07:24:00,axn,32.41
2023-10-13T07:25:00,axn,32.17
2023-10-13T07:26:00,axn,32.08
2023-10-13T07:27:00,axn,33.63
2023-10-13T07:28:00,axn,32.41
2023-10-13T07:29:00,axn,32.16
2023-10-13T07:30:00,axn,32.91
2023-10-13T07:31:00,axn,32.45
2023-10-13T07:32:00,axn,32.72
2023-10-13T07:33:00,axn,33.25
2023-10-13T07:34:00,axn,33.64
2023-10-13T07:35:00,axn,33.90
2023-10-13T07:36:00,axn,34.83
2023-10-13T07:37:00,axn,34.37
2023-10-13T07:38:00,axn,34.74
2023-10-13T07:39:00,axn,34.74
2023-10-13T07:40:00,axn,34.87
2023-10-13T07:41:00,axn,34.64
2023-10-13T07:42:00,axn,34.17
2023-10-13T07:43:00,axn,33.31
2023-10-13T07:44:00,axn,32.39
2023-10-13T07:45:00,axn,32.46
2023-10-13T07:46:00,axn,32.25
2023-10-13T07:47:00,axn,32.26
2023-10-13T07:48:00,axn,32.38
2023-10-13T07:49:00,axn,32.46
2023-10-13T07:50:00,axn,33.12
2023-10-13T07:51:00,axn,33.36
2023-10-13T07:52:00,axn,34.44
2023-10-13T07:53:00,axn,34.67
2023-10-13T07:54:00,axn,34.75
2023-10-13T07:55:00,axn,49.46
2023-10-13T07:56:00,axn,49.41
2023-10-13T07:57:00,axn,49.31
2023-10-13T07:58:00,axn,49.15
2023-10-13T07:59:00,axn,49.04
2023-10-13T08:00:00,axn,48.83
2023-10-13T08:01:00,axn,38.88
2023-10-13T08:02:00,axn,40.60
2023-10-13T08:03:00,axn,41.14
2023-10-13T08:04:00,axn,41.24
2023-10-13T08:05:00,axn,41.34
2023-10-13T08:06:00,axn,40.98
2023-10-13T08:07:00,axn,40.97
2023-10-13T08:08:00,axn,40.41
2023-10-13T08:09:00,axn,40.35
2023-10-13T08:10:00,axn,40.61
2023-10-13T08:11:00,axn,40.73
2023-10-13T08:12:00,axn,40.61
2023-10-13T08:13:00,axn,40.58
2023-10-13T08:14:00,axn,40.72
2023-10-13T08:15:00,axn,41.23
2023-10-13T08:16:00,axn,41.10
2023-10-13T08:17:00,axn,41.89
2023-10-13T08:18:00,axn,41.89
2023-10-13T08:19:00,axn,41.76
2023-10-13T08:20:00,axn,41.28
2023-10-13T08:21:00,axn,41.27
2023-10-13T08:22:00,axn,41.46
2023-10-13T08:23:00,axn,51.88
2023-10-13T08:24:00,axn,51.98
2023-10-13T08:25:00,axn,51.42
2023-10-13T08:26:00,axn,51.55
2023-10-13T08:27:00,axn,51.29
2023-10-13T08:28:00,axn,41.01
2023-10-13T08:29:00,axn,40.94
2023-10-13T08:30:00,axn,41.24
2023-10-13T08:31:00,axn,41.25
2023-10-13T08:32:00,axn,41.36
2023-10-13T08:33:00,axn,41.31
2023-10-13T08:34:00,axn,41.16
2023-10-13T08:35:00,axn,41.97
2023-10-13T08:36:00,axn,42.03
2023-10-13T08:37:00,axn,41.55
2023-10-13T08:38:00,axn,41.74
2023-10-13T08:39:00,axn,41.90
2023-10-13T08:40:00,axn,42.02
2023-10-13T08:41:00,axn,41.80
2023-10-13T08:42:00,axn,42.20
2023-10-13T08:43:00,axn,42.25
2023-10-13T08:44:00,axn,42.04
2023-10-13T08:45:00,axn,44.70
2023-10-13T08:46:00,axn,44.63
2023-10-13T08:47:00,axn,44.70
2023-10-13T08:48:00,axn,41.39
2023-10-13T08:49:00,axn,40.94
2023-10-13T08:50:00,axn,41.08
2023-10-13T08:51:00,axn,41.27
2023-10-13T08:52:00,axn,41.09
2023-10-13T08:53:00,axn,41.16
2023-10-13T08:54:00,axn,41.50
2023-10-13T08:55:00,axn,41.09
2023-10-13T08:56:00,axn,41.16
2023-10-13T08:57:00,axn,41.40
2023-10-13T08:58:00,axn,41.16
2023-10-13T08:59:00,axn,41.04
2023-10-13T09:00:00,axn,40.77
2023-10-13T09:01:00,axn,40.99
2023-10-13T09:02:00,axn,40.93
2023-10-13T09:03:00,axn,41.29
2023-10-13T09:04:00,axn,41.18
2023-10-13T09:05:00,axn,41.44
2023-10-13T09:06:00,axn,41.14
2023-10-13T09:07:00,axn,41.15
2023-10-13T09:08:00,axn,41.12
2023-10-13T09:09:00,axn,41.10
2023-10-13T09:10:00,axn,40.96
2023-10-13T09:11:00,axn,40.75
2023-10-13T09:12:00,axn,40.52
2023-10-13T09:13:00,axn,41.18
2023-10-13T09:14:00,axn,40.76
2023-10-13T09:15:00,axn,40.78
2023-10-13T09:16:00,axn,41.43
2023-10-13T09:17:00,axn,41.21
2023-10-13T09:18:00,axn,41.46
2023-10-13T09:19:00,axn,41.56
2023-10-13T09:20:00,axn,41.35
2023-10-13T09:21:00,axn,41.54
2023-10-13T09:22:00,axn,41.58
2023-10-13T09:23:00,axn,41.13
2023-10-13T09:24:00,axn,41.45
2023-10-13T09:25:00,axn,41.71
2023-10-13T09:26:00,axn,41.11
2023-10-13T09:27:00,axn,41.20
2023-10-13T09:28:00,axn,44.73
2023-10-13T09:29:00,axn,44.76
2023-10-13T09:30:00,axn,41.74
2023-10-13T09:31:00,axn,42.06
2023-10-13T09:32:00,axn,41.82
2023-10-13T09:33:00,axn,41.73
2023-10-13T09:34:00,axn,41.54
2023-10-13T09:35:00,axn,41.69
2023-10-13T09:36:00,axn,41.38
2023-10-13T09:37:00,axn,41.35
2023-10-13T09:38:00,axn,41.49
2023-10-13T09:39:00,axn,41.47
2023-10-13T09:40:00,axn,41.57
2023-10-13T09:41:00,axn,41.66
2023-10-13T09:42:00,axn,41.51
2023-10-13T09:43:00,axn,41.78
2023-10-13T09:44:00,axn,41.84
2023-10-13T09:45:00,axn,47.58
2023-10-13T09:46:00,axn,47.48
2023-10-13T09:47:00,axn,47.19
2023-10-13T09:48:00,axn,41.33
2023-10-13T09:49:00,axn,41.34
2023-10-13T09:50:00,axn,41.57
2023-10-13T09:51:00,axn,41.34
2023-10-13T09:52:00,axn,41.82
2023-10-13T09:53:00,axn,41.48
2023-10-13T09:54:00,axn,41.82
2023-10-13T09:55:00,axn,41.55
2023-10-13T09:56:00,axn,41.48
2023-10-13T09:57:00,axn,41.34
2023-10-13T09:58:00,axn,41.18
2023-10-13T09:59:00,axn,41.10
2023-10-13T10:00:00,axn,41.67
2023-10-13T10:01:00,axn,41.63
2023-10-13T10:02:00,axn,42.20
2023-10-13T10:03:00,axn,41.58
2023-10-13T10:04:00,axn,41.45
2023-10-13T10:05:00,axn,41.19
2023-10-13T10:06:00,axn,41.22
2023-10-13T10:07:00,axn,41.65
2023-10-13T10:08:00,axn,41.72
2023-10-13T10:09:00,axn,40.89
2023-10-13T10:10:00,axn,40.81
2023-10-13T10:11:00,axn,41.03
2023-10-13T10:12:00,axn,41.00
2023-10-13T10:13:00,axn,41.16
2023-10-13T10:14:00,axn,41.16
2023-10-13T10:15:00,axn,41.46
2023-10-13T10:16:00,axn,41.79
2023-10-13T10:17:00,axn,41.66
2023-10-13T10:18:00,axn,53.61
2023-10-13T10:19:00,axn,42.13
2023-10-13T10:20:00,axn,41.52
2023-10-13T10:21:00,axn,41.46
2023-10-13T10:22:00,axn,42.20
2023-10-13T10:23:00,axn,42.21
2023-10-13T10:24:00,axn,41.72
2023-10-13T10:25:00,axn,42.19
2023-10-13T10:26:00,axn,41.86
2023-10-13T10:27:00,axn,42.07
2023-10-13T10:28:00,axn,42.10
2023-10-13T10:29:00,axn,42.32
2023-10-13T10:30:00,axn,41.68
2023-10-13T10:31:00,axn,41.43
2023-10-13T10:32:00,axn,41.33
2023-10-13T10:33:00,axn,41.64
2023-10-13T10:34:00,axn,41.03
2023-10-13T10:35:00,axn,41.34
2023-10-13T10:36:00,axn,40.86
2023-10-13T10:37:00,axn,41.11
2023-10-13T10:38:00,axn,41.02
2023-10-13T10:39:00,axn,41.21
2023-10-13T10:40:00,axn,41.14
2023-10-13T10:41:00,axn,40.83
2023-10-13T10:42:00,axn,51.82
2023-10-13T10:43:00,axn,40.89
2023-10-13T10:44:00,axn,40.58
2023-10-13T10:45:00,axn,40.22
2023-10-13T10:46:00,axn,40.52
2023-10-13T10:47:00,axn,40.30
2023-10-13T10:48:00,axn,41.44
2023-10-13T10:49:00,axn,40.61
2023-10-13T10:50:00,axn,40.41
2023-10-13T10:51:00,axn,40.93
2023-10-13T10:52:00,axn,40.87
2023-10-13T10:53:00,axn,41.05
2023-10-13T10:54:00,axn,40.90
2023-10-13T10:55:00,axn,40.46
2023-10-13T10:56:00,axn,40.87
2023-10-13T10:57:00,axn,40.09
2023-10-13T10:58:00,axn,40.65
2023-10-13T10:59:00,axn,40.86
2023-10-13T11:00:00,axn,40.79
2023-10-13T11:01:00,axn,40.50
2023-10-13T11:02:00,axn,40.54
2023-10-13T11:03:00,axn,40.81
2023-10-13T11:04:00,axn,40.92
2023-10-13T11:05:00,axn,40.89
2023-10-13T11:06:00,axn,40.75
2023-10-13T11:07:00,axn,40.37
2023-10-13T11:08:00,axn,40.28
2023-10-13T11:09:00,axn,40.58
2023-10-13T11:10:00,axn,40.84
2023-10-13T11:11:00,axn,41.04
2023-10-13T11:12:00,axn,40.63
2023-10-13T11:13:00,axn,41.63
2023-10-13T11:14:00,axn,41.37
2023-10-13T11:15:00,axn,41.01
2023-10-13T11:16:00,axn,40.94
2023-10-13T11:17:00,axn,41.17
2023-10-13T11:18:00,axn,40.65
2023-10-13T11:19:00,axn,41.06
2023-10-13T11:20:00,axn,40.66
2023-10-13T11:21:00,axn,40.80
2023-10-13T11:22:00,axn,40.69
2023-10-13T11:23:00,axn,56.68
2023-10-13T11:24:00,axn,41.27
2023-10-13T11:25:00,axn,41.88
2023-10-13T11:26:00,axn,41.93
2023-10-13T11:27:00,axn,41.60
2023-10-13T11:28:00,axn,51.42
2023-10-13T11:29:00,axn,41.61
2023-10-13T11:30:00,axn,41.74
2023-10-13T11:31:00,axn,41.21
2023-10-13T11:32:00,axn,40.97
2023-10-13T11:33:00,axn,41.23
2023-10-13T11:34:00,axn,41.72
2023-10-13T11:35:00,axn,41.05
2023-10-13T11:36:00,axn,41.11
2023-10-13T11:37:00,axn,41.66
2023-10-13T11:38:00,axn,49.86
2023-10-13T11:39:00,axn,49.74
2023-10-13T11:40:00,axn,49.44
2023-10-13T11:41:00,axn,49.24
2023-10-13T11:42:00,axn,49.02
2023-10-13T11:43:00,axn,49.01
2023-10-13T11:44:00,axn,49.41
2023-10-13T11:45:00,axn,48.91
2023-10-13T11:46:00,axn,48.98
2023-10-13T11:47:00,axn,48.67
2023-10-13T11:48:00,axn,48.95
2023-10-13T11:49:00,axn,49.16
2023-10-13T11:50:00,axn,49.03
2023-10-13T11:51:00,axn,49.12
2023-10-13T11:52:00,axn,49.32
2023-10-13T11:53:00,axn,48.68
2023-10-13T11:54:00,axn,49.02
2023-10-13T11:55:00,axn,53.81
2023-10-13T11:56:00,axn,53.52
2023-10-13T11:57:00,axn,53.39
2023-10-13T11:58:00,axn,53.66
2023-10-13T11:59:00,axn,48.69
2023-10-13T12:00:00,axn,48.81
2023-10-13T12:01:00,axn,49.19
2023-10-13T12:02:00,axn,50.08
2023-10-13T12:03:00,axn,50.31
2023-10-13T12:04:00,axn,49.64
2023-10-13T12:05:00,axn,49.18
2023-10-13T12:06:00,axn,52.18
2023-10-13T12:07:00,axn,52.46
2023-10-13T12:08:00,axn,52.16
2023-10-13T12:09:00,axn,49.19
2023-10-13T12:10:00,axn,48.98
2023-10-13T12:11:00,axn,59.49
2023-10-13T12:12:00,axn,59.57
2023-10-13T12:13:00,axn,59.92
2023-10-13T12:14:00,axn,58.87
2023-10-13T12:15:00,axn,48.79
2023-10-13T12:16:00,axn,48.87
2023-10-13T12:17:00,axn,48.54
2023-10-13T12:18:00,axn,48.60
2023-10-13T12:19:00,axn,48.67
2023-10-13T12:20:00,axn,51.63
2023-10-13T12:21:00,axn,51.19
2023-10-13T12:22:00,axn,48.58
2023-10-13T12:23:00,axn,48.54
2023-10-13T12:24:00,axn,48.32
2023-10-13T12:25:00,axn,49.21
2023-10-13T12:26:00,axn,48.41
2023-10-13T12:27:00,axn,48.41
2023-10-13T12:28:00,axn,48.44
2023-10-13T12:29:00,axn,48.31
2023-10-13T12:30:00,axn,48.60
2023-10-13T12:31:00,axn,48.35
2023-10-13T12:32:00,axn,48.36
2023-10-13T12:33:00,axn,48.35
2023-10-13T12:34:00,axn,48.58
2023-10-13T12:35:00,axn,48.44
2023-10-13T12:36:00,axn,48.52
2023-10-13T12:37:00,axn,48.82
2023-10-13T12:38:00,axn,48.47
2023-10-13T12:39:00,axn,48.41
2023-10-13T12:40:00,axn,48.13
2023-10-13T12:41:00,axn,48.10
2023-10-13T12:42:00,axn,48.00
2023-10-13T12:43:00,axn,47.91
2023-10-13T12:44:00,axn,47.95
2023-10-13T12:45:00,axn,48.03
2023-10-13T12:46:00,axn,47.80
2023-10-13T12:47:00,axn,47.81
2023-10-13T12:48:00,axn,48.46
2023-10-13T12:49:00,axn,48.19
2023-10-13T12:50:00,axn,48.40
2023-10-13T12:51:00,axn,62.88
2023-10-13T12:52:00,axn,62.74
2023-10-13T12:53:00,axn,62.99
2023-10-13T12:54:00,axn,62.64
2023-10-13T12:55:00,axn,62.57
2023-10-13T12:56:00,axn,63.13
2023-10-13T12:57:00,axn,48.31
2023-10-13T12:58:00,axn,48.23
2023-10-13T12:59:00,axn,48.25
2023-10-13T13:00:00,axn,48.35
2023-10-13T13:01:00,axn,48.51
2023-10-13T13:02:00,axn,53.73
2023-10-13T13:03:00,axn,48.51
2023-10-13T13:04:00,axn,48.76
2023-10-13T13:05:00,axn,48.37
2023-10-13T13:06:00,axn,48.66
2023-10-13T13:07:00,axn,48.48
2023-10-13T13:08:00,axn,48.39
2023-10-13T13:09:00,axn,48.32
2023-10-13T13:10:00,axn,48.28
2023-10-13T13:11:00,axn,48.34
2023-10-13T13:12:00,axn,48.29
2023-10-13T13:13:00,axn,48.57
2023-10-13T13:14:00,axn,48.43
2023-10-13T13:15:00,axn,48.72
2023-10-13T13:16:00,axn,48.37
2023-10-13T13:17:00,axn,48.74
2023-10-13T13:18:00,axn,48.48